Snowfall_Accumulation
0.0 0.0 0.0 0.0 0.0 0.0 0.0 0.0 0.0 0.0 0.0 0.0 0.0 0.0 0.0 0.0 0.0 0.0 0.0 0.0 0.0 0.0 0.0 0.0 0.0 0.0 0.0 0.0 0.0 0.0 0.0 0.9 0.0 0.0 0.0 0.0 0.0 0.0 0.0 0.0 0.0 0.0 0.0 0.0 0.0
0.0 0.0 0.0 0.0 0.0 0.0 0.0 0.0 0.0 0.0 0.0 0.0 0.0 0.0 0.0 0.0 0.0 0.0 0.0 0.0 0.0 0.0 0.0 0.0 0.0 0.0 0.0 0.0 0.0 0.0 0.0 0.0 0.0 0.0 0.0 0.0 0.0 0.0 0.0 0.0 0.0 0.0 0.0 0.0 0.0
0.0 0.0 0.0 0.0 0.0 0.0 0.0 0.0 0.0 0.0 0.0 0.0 0.0 0.0 0.0 0.0 0.0 0.0 0.0 0.0 0.0 0.0 0.0 0.0 0.0 0.0 0.0 0.0 0.0 0.0 0.0 0.0 0.0 0.0 0.0 0.0 0.0 0.0 0.0 0.0 0.0 0.0 0.0 0.0 0.0
0.0 0.0 0.0 0.0 0.0 0.0 0.0 0.0 0.0 0.0 0.0 0.0 0.0 0.0 0.0 0.0 0.4 0.0 0.0 0.0 0.0 0.0 0.0 0.0 0.0 0.0 0.0 0.0 0.0 0.0 0.0 0.0 0.0 0.0 0.0 0.0 0.0 0.0 0.0 0.0 0.0 0.0 0.0 0.0 0.0
0.0 0.0 0.0 0.0 0.0 0.0 0.0 0.0 0.0 0.0 0.0 0.0 0.0 0.0 0.0 0.0 0.0 0.0 0.0 0.0 0.0 0.0 0.0 0.0 0.0 0.0 0.0 0.0 0.0 0.0 0.0 0.0 0.0 0.0 0.0 0.0 0.0 0.0 0.0 0.0 0.0 0.0 0.0 0.0 0.0
0.0 0.0 0.0 0.0 0.0 0.0 0.0 0.0 0.0 0.0 0.0 0.0 0.0 0.0 0.0 0.0 0.0 0.0 0.0 0.0 0.0 0.0 0.0 0.0 0.0 0.0 0.0 0.0 0.0 0.0 0.0 0.0 0.0 0.0 0.0 0.0 0.0 0.0 0.0 0.0 0.0 0.0 0.0 0.0 0.0
0.0 0.0 0.0 0.0 0.0 0.0 0.0 0.0 0.0 0.0 0.0 0.0 0.0 0.0 0.0 0.0 0.0 0.0 0.0 0.0 0.0 0.0 0.0 0.0 0.0 0.0 0.0 0.0 0.0 0.0 0.0 0.0 0.0 0.0 0.0 0.0 0.3 0.0 0.0 0.0 0.0 0.0 0.0 0.0 0.0
0.0 0.0 0.0 0.0 0.0 0.0 0.0 0.0 0.0 0.0 0.0 0.0 0.0 0.0 0.0 0.0 0.0 0.0 0.0 0.0 0.0 0.0 0.0 0.0 0.0 0.0 0.0 0.0 0.0 0.0 0.3 4.9 0.0 0.0 0.0 0.0 1.2 0.0 0.0 0.0 0.0 0.0 0.0 0.0 0.0
0.0 0.0 0.0 0.0 0.0 0.0 0.0 0.0 0.0 0.0 0.0 0.0 0.0 0.0 0.0 0.0 0.0 0.0 0.0 0.0 0.0 0.0 0.0 0.0 0.0 0.0 0.0 0.0 1.0 0.5 3.5 3.6 0.0 0.0 0.0 0.0 0.6 0.0 0.0 0.0 0.0 0.0 0.0 0.0 0.0
0.0 0.0 0.0 0.0 0.0 0.0 0.0 0.0 0.0 0.0 0.0 0.0 0.0 0.0 0.0 0.0 0.0 0.0 0.0 0.0 0.0 0.0 0.0 0.0 0.0 0.0 0.0 0.9 5.7 1.5 1.4 0.5 1.5 0.0 0.0 0.0 0.0 0.0 0.0 0.0 0.0 0.0 0.0 0.0 0.0
0.0 0.0 0.0 0.0 0.0 0.0 0.0 0.0 0.0 0.0 0.0 0.0 0.0 0.0 0.0 0.0 0.0 0.0 0.0 0.0 0.0 0.0 0.0 0.0 0.4 0.7 0.0 0.0 0.0 1.0 2.1 1.8 0.0 0.0 0.2 0.0 0.3 0.0 0.0 0.0 0.0 0.0 0.0 0.0 0.0
0.0 0.0 0.0 0.0 0.0 0.0 0.0 0.0 0.0 0.0 0.0 0.0 0.0 0.0 0.0 0.0 0.0 0.0 0.0 0.0 0.0 0.0 0.0 0.0 0.7 0.0 0.0 0.0 0.8 0.8 3.0 3.4 0.6 0.0 0.0 0.6 0.4 0.0 0.0 0.0 0.0 0.0 0.0 0.0 0.0
0.0 0.0 0.0 0.0 0.0 0.0 0.0 0.0 0.0 0.0 0.8 0.0 0.0 0.0 0.0 0.0 0.0 0.0 0.0 0.0 0.0 0.0 0.2 1.2 0.0 0.0 0.0 0.0 1.5 0.8 3.4 2.5 2.4 0.5 0.2 0.6 1.3 0.0 0.0 0.0 0.0 0.0 0.0 0.0 0.0
0.0 0.0 0.0 0.0 0.0 0.0 0.0 0.0 0.0 0.0 13.5 2.2 0.0 0.0 0.0 0.0 0.1 0.0 0.0 0.0 0.3 1.6 0.0 0.9 0.0 0.0 0.1 0.2 0.1 3.5 0.0 0.0 0.7 4.5 9.8 0.1 14.8 0.1 0.0 0.0 0.0 0.0 0.0 0.0 0.0
0.0 0.0 0.0 0.0 0.0 0.0 0.0 0.0 0.0 0.0 28.3 0.4 0.0 0.0 0.0 0.0 0.0 0.0 0.0 0.0 1.5 1.5 1.8 4.5 0.0 0.0 0.5 0.0 0.0 0.8 0.0 0.1 1.0 3.7 7.8 3.6 18.0 1.7 0.0 0.0 0.0 0.0 0.0 0.0 0.0
0.0 0.0 0.0 0.0 0.0 0.0 0.0 0.0 0.0 21.1 30.4 6.3 0.0 0.0 0.0 0.0 0.0 0.0 0.0 0.0 0.0 0.1 0.0 0.6 0.0 0.0 0.7 0.4 0.1 0.0 0.2 0.1 0.4 3.4 29.9 3.0 6.7 2.3 0.8 1.1 0.0 0.0 0.0 0.0 0.0
0.0 0.0 0.0 0.0 0.0 0.0 0.0 0.0 20.1 22.2 3.9 6.7 1.9 0.0 0.0 0.0 0.0 0.0 0.2 2.4 5.6 14.4 10.8 4.7 2.1 0.3 0.8 1.6 0.0 2.5 9.4 29.2 27.0 32.6 10.3 0.7 4.5 6.3 0.6 0.1 0.0 0.0 0.0 0.0 0.0
0.0 0.0 0.0 0.0 0.0 0.0 0.0 1.3 19.0 2.6 7.1 0.0 0.0 0.0 0.8 0.0 0.0 0.0 0.2 2.9 2.5 3.7 6.7 10.0 11.2 3.3 0.8 5.2 9.3 1.6 10.4 25.9 21.2 7.0 1.9 0.0 6.9 5.8 0.2 0.0 0.0 0.0 0.0 0.0 0.0
0.0 0.0 0.0 0.0 0.0 0.0 0.0 19.7 7.3 6.6 4.3 0.7 0.0 1.0 0.7 0.0 0.4 0.6 1.3 5.2 4.5 4.2 14.8 9.5 2.9 0.2 0.6 0.6 4.3 4.2 15.4 1.6 16.5 3.2 8.1 1.4 2.0 1.3 0.1 0.0 0.0 0.0 0.0 0.0 0.0
0.0 0.0 0.0 0.0 0.0 0.0 4.3 10.7 4.0 1.2 0.0 0.3 3.5 0.9 2.6 0.4 0.9 1.7 1.9 6.7 4.3 3.0 3.0 6.3 8.5 0.1 0.8 0.9 1.6 6.8 5.5 12.1 25.6 28.0 6.9 1.2 4.7 7.3 1.8 0.8 0.0 0.0 0.5 0.3 0.1
0.0 0.0 0.0 0.0 0.0 0.0 20.1 8.0 2.3 0.5 0.5 0.6 1.2 2.2 2.7 2.4 0.1 1.5 3.4 3.4 2.6 1.9 1.5 5.4 13.6 0.6 0.6 5.3 13.3 8.4 26.2 13.6 11.6 8.9 19.1 9.7 9.5 9.5 7.7 6.3 6.3 3.0 2.3 2.3 2.0
0.0 3.4 0.0 0.0 0.3 4.0 7.6 3.8 0.0 0.7 0.1 0.5 1.4 4.2 3.8 1.8 2.1 0.5 2.2 3.5 2.2 2.7 4.6 4.9 13.9 12.6 2.5 3.9 6.3 5.1 16.2 21.1 22.6 11.6 13.7 18.9 14.1 5.4 9.8 10.9 13.1 10.7 6.9 4.1 3.5
2.8 0.0 0.0 0.0 10.2 4.8 1.1 0.2 0.1 0.0 0.3 0.2 1.0 0.9 1.8 1.7 4.5 0.1 0.1 0.0 0.5 1.0 4.1 8.5 16.2 14.9 9.9 5.1 3.0 10.8 11.0 14.4 12.6 14.4 21.8 33.3 25.1 7.7 8.9 10.5 13.0 13.0 10.3 8.7 5.4
3.6 8.3 0.0 0.0 0.1 5.6 3.7 0.8 0.0 0.1 0.0 0.6 0.6 0.3 0.5 0.2 0.0 1.1 0.2 0.0 0.0 0.2 0.8 2.4 8.0 13.8 21.0 16.2 14.9 17.8 9.0 10.4 18.9 43.0 18.3 26.9 27.6 17.1 14.9 12.5 12.9 10.8 12.3 11.5 9.4
2.2 4.6 0.5 7.7 1.6 1.7 3.4 4.1 1.5 1.1 0.4 0.5 0.7 0.7 3.5 4.0 0.3 0.3 0.0 0.0 0.0 0.0 0.5 2.3 11.8 2.2 1.6 2.5 8.5 13.1 15.5 13.3 25.8 18.4 32.0 29.7 26.0 28.5 28.3 32.0 27.1 23.6 19.5 14.1 12.7
6.5 9.7 6.1 2.8 1.4 1.4 2.2 2.5 1.8 1.5 3.1 1.0 0.8 0.5 0.6 3.2 2.1 2.0 0.4 0.0 0.2 0.0 0.0 2.0 11.5 7.9 6.5 2.7 6.7 12.3 7.9 9.4 13.2 15.3 19.3 17.4 17.2 19.5 23.3 19.8 21.2 18.9 17.1 18.1 21.6
0.1 0.5 12.4 1.6 1.7 4.3 2.1 2.9 2.9 1.9 0.0 0.4 0.7 1.5 0.4 0.3 0.0 0.0 0.0 0.0 0.7 1.8 1.4 5.5 6.5 12.1 9.2 2.0 5.1 17.5 20.3 14.7 15.2 19.6 24.6 35.5 34.2 25.0 24.1 22.7 25.4 25.2 27.6 28.5 31.5